{"data":{"norad_id":67978,"epoch":"2026-09-19T18:15:35.517600Z","epoch_age_seconds":123424,"freshness":"FRESH","line1":"1 67978U 26038T   26262.76082775  .00019130  00000+0  59312-3 0  9992","line2":"2 67978  97.2849 271.1657 0000180 136.6780 223.4477 15.33458832 32980","mean_motion":15.33458832,"eccentricity":1.8e-5,"inclination_deg":97.2849,"raan_deg":271.1657,"arg_perigee_deg":136.678,"mean_anomaly_deg":223.4477,"bstar":0.00059312,"rev_number":3298,"period_min":93.905357610539,"perigee_km":465.37883498475,"apogee_km":465.62520598949,"semimajor_km":6843.6390204871,"source":"CELESTRAK","updated_at":"2026-09-20T09:00:43.732719Z"}}